sat.trackr.live / text

‹ back to catalog

STARLINK-35959

NORAD 66827 · 2025-280G

PAYLOAD ACTIVE UNKNOWN

§ Identity

Operator
Country
US
Launch date
2025-12-02
Launch site
AFWTR
Launch vehicle
Mass (kg)
RCS (m²)

Purposes: comms

External: N2YO · Heavens-Above · Gunter

§ Orbital elements

Epoch: 2026-09-20T13:16:55.107840Z

Period
96.11 min
Inclination
70.0007°
Eccentricity
0.0002603
Mean motion
14.98328627 rev/d
Perigee alt
570.3 km
Apogee alt
573.9 km
Semi-major
6,950.2 km
B*
3.1438e-4
RAAN
203.1739°
Arg perigee
264.3642°
Mean anomaly
95.7220°
Rev number
4,526

§ Raw data

STARLINK-359591 66827U 25280G   26263.55341560  .00003660  00000+0  31438-3 0  99902 66827  70.0007 203.1739 0002603 264.3642  95.7220 14.98328627 45260

JSON: /api/v1/satellites/66827 · /tle

For live sub-satellite position, see the globe view (requires WebGL).

§ Visibility from observer

Set your observer location to see the next 7 days of passes ≥ 10°. The values pass through the URL so the page stays shareable.

No JS? Fill the form by hand. The geolocation button needs JavaScript.